Home   Weather   Volgograd   Past weeks

Flag for Russia Past Weather in Volgograd, Russia — Yesterday and Last 2 Weeks

Now
32 °F

Chilly.


Feels Like: 25 °F
Forecast: 31 / 33 °F
Wind: 8 mph from West

Location: Volgograd Airport

Current Time: Dec 9, 2016 at 10:42:02 pm

Latest Report: Dec 9, 2016 at 10:00 pm


Visibility: 0 mi

Pressure: 29.59 "Hg

Humidity: 100%

Dew Point: 32 °F

Location of VolgogradLocation

Past Weather in Volgograd — Graph

°F

Volgograd Temperature Yesterday

Maximum temperature yesterday: 25 °F (at 11:00 pm)
Minimum temperature yesterday: 0 °F (at 2:00 am)
Average temperature yesterday: 12 °F

High & Low Weather Summary for the Past Weeks

 TemperatureHumidityPressure
High48 °F (Nov 28, 1:00 pm)100% (Nov 24, 11:00 pm)30.36 "Hg (Nov 24, 11:00 pm)
Low0 °F (Dec 8, 2:00 am)55% (Nov 30, 2:30 pm)29.50 "Hg (Dec 9, 7:30 am)
Average26 °F86%29.95 "Hg
* Reported Nov 24 9:00 pm — Dec 9 9:00 pm, Volgograd, Weather by CustomWeather, © 2016

Note: Actual official high and low records may vary slightly from our data, if they occured in-between our weather recording intervals... More about our weather records

Advertising

Volgograd Weather History for the Previous 24 Hours

Scroll right to see more
 ConditionsComfort  
Time TempWeatherWind HumidityBarometerVisibility
9:00 pm
Fri, Dec 9
32 °FChilly.6 mph100%29.62 "Hg0 mi
8:30 pm32 °FFog.6 mph100%29.62 "Hg1 mi
8:00 pm32 °FIce fog.6 mph100%29.62 "Hg3 mi
7:30 pm32 °FPassing clouds.6 mph100%29.62 "HgN/A
7:00 pm32 °FPassing clouds.6 mph93%29.62 "HgN/A
6:00 pm32 °FLow clouds.3 mph93%29.62 "HgN/A
5:00 pm32 °FOvercast.8 mph93%29.62 "HgN/A
4:30 pm32 °FOvercast.8 mph93%29.59 "HgN/A
4:00 pm32 °FOvercast.8 mph93%29.59 "HgN/A
3:30 pm32 °FOvercast.10 mph93%29.59 "HgN/A
3:00 pm34 °FOvercast.10 mph87%29.56 "HgN/A
2:30 pm34 °FOvercast.10 mph87%29.56 "HgN/A
2:00 pm34 °FOvercast.10 mph87%29.56 "HgN/A
1:30 pm34 °FLow clouds.10 mph87%29.56 "HgN/A
1:00 pm34 °FLow clouds.10 mph87%29.53 "HgN/A
12:30 pm34 °FLow clouds.13 mph87%29.53 "HgN/A
12:00 pm34 °FLow clouds.13 mph93%29.53 "HgN/A
11:30 am32 °FBroken clouds.10 mph93%29.53 "HgN/A
11:00 am32 °FBroken clouds.10 mph93%29.53 "HgN/A
10:30 am32 °FLight snow. Low clouds.10 mph93%29.53 "Hg5 mi
10:00 am32 °FSnow showers. Partly sunny.10 mph93%29.53 "Hg1 mi
9:30 am32 °FSnow flurries. Partly sunny.10 mph100%29.53 "Hg1 mi
9:00 am32 °FChilly.13 mph93%29.53 "Hg1 mi
8:30 am32 °FSnow flurries. Partly sunny.15 mph93%29.53 "Hg1 mi
8:00 am32 °FPartly sunny.15 mph93%29.53 "HgN/A
7:30 am32 °FLight snow. Low clouds.15 mph93%29.50 "HgN/A
7:00 am32 °FLight snow. Low clouds.15 mph93%29.53 "Hg6 mi
6:00 am32 °FLight snow. Low clouds.17 mph93%29.53 "Hg4 mi
5:30 am32 °FLight snow. Low clouds.17 mph93%29.53 "Hg2 mi
5:00 am30 °FLight snow. Low clouds.17 mph100%29.53 "Hg2 mi
4:30 am30 °FSnow. Low clouds.20 mph100%29.56 "Hg1 mi
4:00 am30 °FChilly.24 mph93%29.56 "Hg1 mi
3:30 am30 °FChilly.26 mph93%29.59 "Hg1 mi
3:00 am30 °FLight snow. Low clouds.26 mph93%29.59 "Hg2 mi
2:30 am30 °FLight snow. Low clouds.29 mph86%29.62 "Hg2 mi
2:00 am28 °FLight snow. Low clouds.29 mph93%29.65 "Hg3 mi
1:30 am27 °FSnow flurries. Passing clouds.29 mph93%29.68 "Hg1 mi
1:00 am27 °FChilly.26 mph93%29.71 "Hg1 mi
12:30 am27 °FIce fog.26 mph93%29.74 "Hg0 mi
12:00 am25 °FHeavy snow. Ice fog.24 mph93%29.80 "Hg1 mi
11:30 pm
Thu, Dec 8
25 °FCold.22 mph93%29.80 "Hg1 mi
11:00 pm25 °FSnow. Mostly cloudy.26 mph86%29.86 "Hg1 mi
10:30 pm23 °FLight snow. Mostly cloudy.24 mph93%29.86 "Hg1 mi
10:00 pm23 °FLight snow. Passing clouds.22 mph86%29.89 "Hg4 mi
Weather by CustomWeather, © 2016

See weather overviewHow to use our weather pages